Regional Weather Roundup
Issued by NWS

Home | Current Version | Previous Version | Graphics & Text | Print | Product List | Glossary Off
Versions: 1 2 3 4 5 6 7 8 9 10 11 12 13 14 15 16 17 18 19 20 21 22 23 24 25 26 27 28 29 30 31 32 33 34 35 36 37 38 39 40 41 42 43 44 45 46 47 48 49 50

000
ASUS43 KTOP 200108
RWRKS

WEATHER ROUNDUP FOR KANSAS
NATIONAL WEATHER SERVICE GOODLAND KS
700 PM CST MON FEB 19 2018

NOTE:  "FAIR" INDICATES FEW OR NO CLOUDS BELOW 12,000 FEET WITH NO
SIGNIFICANT WEATHER AND/OR OBSTRUCTIONS TO VISIBILITY.

KSZ001>006-013>018-027>032-041>047-200200-
NORTHWEST KANSAS

CITY           SKY/WX    TMP DP  RH WIND       PRES   REMARKS
GOODLAND       FLURRIES  14  11  87 NE14      29.70F WCI  -1
HAYS           CLOUDY    23  15  71 N12       29.81R WCI  12
HILL CITY      CLOUDY    20  14  77 N13       29.82S WCI   7
RUSSELL        CLOUDY    25  16  68 N13       29.79F WCI  14
$$

KSZ061>065-074>080-084>089-200200-
SOUTHWEST KANSAS

CITY           SKY/WX    TMP DP  RH WIND       PRES   REMARKS
DODGE CITY     PTCLDY    30  16  56 NE10      29.71S WCI  21
ELKHART        MOCLDY    38  27  66 SE13      29.61F WCI  30
GARDEN CITY    PTCLDY    27  14  58 NE13      29.70R WCI  16
GREAT BEND     CLOUDY    27  17  66 N16       29.78S WCI  15
LIBERAL        CLOUDY    35  20  54 E13       29.68R WCI  26
PRATT          CLOUDY    33  19  55 NE10      29.76R WCI  25
$$

KSZ066>073-081>083-090>101-200200-
SOUTHEAST KANSAS

CITY           SKY/WX    TMP DP  RH WIND       PRES   REMARKS
CHANUTE        CLOUDY    35  34  96 N7        29.82S FOG
COFFEYVILLE    CLOUDY    39  38  96 N9        29.81R FOG
HUTCHINSON     CLOUDY    30  23  75 NE9       29.78F
MEDICINE LODGE   N/A     33  23  66 E10       29.77R WCI  25
NEWTON         CLOUDY    29  22  75 NE12      29.79S WCI  19
PARSONS        CLOUDY    37  37 100 N8        29.83R FOG
WICHITA INTL   CLOUDY    32  25  75 NE12      29.79S WCI  23
WICHITA JABRA  CLOUDY    30  25  81 NE9       29.79S
WICHITA MCCONL CLOUDY    31  24  74 NE10      29.78F WCI  22
WINFIELD       CLOUDY    32  30  92 NE10      29.80F WCI  24
$$

KSZ007>012-019>026-033>040-048>060-102>105-200200-
NORTHEAST KANSAS

CITY           SKY/WX    TMP DP  RH WIND       PRES   REMARKS
CONCORDIA      CLOUDY    21  17  84 N15       29.84S WCI   8
EMPORIA        CLOUDY    31  26  82 NE6       29.81S
LAWRENCE       CLOUDY    33  27  78 NW8       29.84R
MANHATTAN      CLOUDY    30  21  69 N9        29.84S
MARYSVILLE     CLOUDY    25  21  86 N9        29.85S
OLATHE IND     CLOUDY    32  31  96 N10       29.83R WCI  24
OLATHE EXE     CLOUDY    32  31  96 NW8       29.82R
SALINA         CLOUDY    29  19  66 N17       29.83S WCI  17
TOPEKA BILLARD CLOUDY    32  27  81 N6        29.84S
TOPEKA FORBES  CLOUDY    32  27  81 N8        29.83S
$$




USA.gov is the U.S. government's official web portal to all federal, state and local government web resources and services.